Miscellaneous Local Product
Issued by NWS North Platte, NE

Home | Current Version | Previous Version | Graphics & Text | Print | Product List | Glossary On
Versions: 1 2 3 4 5 6 7 8 9 10 11 12 13 14 15 16 17 18 19 20 21 22 23 24 25 26 27 28 29 30 31 32 33 34 35 36 37 38 39 40 41 42 43 44 45 46 47 48 49 50
000
AXUS43 KLBF 280110
MISLBF


WESTERN AND NORTH CENTRAL NEBRASKA HOURLY WEATHER ROUNDUP
NATIONAL WEATHER SERVICE NORTH PLATTE NE
700 PM CST FRI FEB 27 2015

***STATIONS NOT REPORTING VARIABLES SUCH AS SKY/WEATHER OR
PRESSURE ARE PROVIDED BY THE NEBRASKA DEPARTMENT OF
ROADS...RAWS...AND APRS NETWORKS...AND ARE NOT UNDER
NATIONAL WEATHER SERVICE QUALITY CONTROL***

...OBSERVATIONS IN AND NEAR THE EASTERN PANHANDLE OF NEBRASKA...

CITY           SKY/WX    TMP DP  RH WIND       PRES   REMARKS
PINE RIDGE     MOCLDY    20   7  57 S14G25    30.05S WCI   7
CHADRON        MOCLDY    20   9  62 S15       30.03S WCI   6
ALLIANCE       CLOUDY    18   8  65 S18       30.03R WCI   2
SIDNEY         CLOUDY    15   6  67 S20       30.04R WCI  -2
WHITECLAY        N/A     21   7  56 S17         N/A  WCI   6
CRESCENT LAKE    N/A     16   6  63 S14G21      N/A  WCI   2
LISCO            N/A     23   7  50 E16         N/A  WCI  10
BIG SPRINGS      N/A     19  11  72 S14         N/A  WCI   6
LEWELLEN         N/A     15   3  59 S15         N/A  WCI   0
$$

...OBSERVATIONS IN NORTH CENTRAL NEBRASKA...

CITY           SKY/WX    TMP DP  RH WIND       PRES   REMARKS
VALENTINE      CLEAR     22   3  44 S13       30.18S WCI  10
THEDFORD       CLEAR     20   6  54 S13       30.20R WCI   7
AINSWORTH      CLEAR     19  -2  40 SE10      30.21S WCI   7
O`NEILL        CLEAR     18  -3  40 S8        30.32R WCI   7
ORD            CLEAR     18  -5  36 S7        30.32S WCI   9
BROKEN BOW     CLEAR     18  -3  39 S8        30.27R WCI   8
BROWNLEE         N/A     18  -4  37 S15         N/A  WCI   4
SPRINGVIEW       N/A     21   0  39 SE5         N/A  WCI  15
BREWSTER         N/A     24   4  42 S8          N/A  WCI  15
ROSE             N/A     24   9  52 E8          N/A  WCI  15
NEWPORT          N/A     25   6  45 S8          N/A  WCI  16
SARGENT          N/A     18  -1  43 S3          N/A
COMSTOCK         N/A     19  -1  42 S7          N/A  WCI   9
CHAMBERS         N/A     14  -9  35 S6          N/A  WCI   5
EWING            N/A     15   1  53 S3          N/A
$$

...OBSERVATIONS IN SOUTHWEST NEBRASKA AND FAR NORTHEAST COLORADO...

CITY           SKY/WX    TMP DP  RH WIND       PRES   REMARKS
WRAY           CLOUDY    15  10  78 SE15      30.13S WCI   0
IMPERIAL         N/A     17   6  62 S17       30.17S WCI   1
OGALLALA       CLOUDY    18   9  65 S15       30.16S WCI   4
NORTH PLATTE   CLOUDY    19   5  54 S12       30.23R WCI   7
MCCOOK         CLOUDY    20   7  57 S12       30.27S WCI   8
LEXINGTON      CLEAR     18  -2  40 S10       30.30R WCI   7
PAXTON           N/A     19  11  70 SE15        N/A  WCI   5
BRADY            N/A     18   4  53 CALM        N/A
GOTHENBURG       N/A     19   2  48 S8          N/A  WCI   9
CALLAWAY         N/A     14   1  57 S12         N/A  WCI   0
$$

...NORTH PLATTE AREA...

CITY           SKY/WX    TMP DP  RH WIND       PRES   REMARKS
AIRPORT        CLOUDY    19   5  54 S12       30.23R WCI   7
DOWNTOWN         N/A     18   6  59 S10G20      N/A  WCI   6
$$

...SOME WEATHER OBSERVATIONS FROM AROUND THE REGION...

CITY           SKY/WX    TMP DP  RH WIND       PRES   REMARKS
DENVER         MOCLDY    12   5  73 NW10      29.90R WCI  -1
LARAMIE        CLEAR     10   3  73 S10       29.74R WCI  -4
CHEYENNE       CLOUDY    11   4  73 S15       29.84S WCI  -5
SCOTTSBLUFF    CLOUDY    20   9  62 S14       30.00R WCI   7
RAPID CITY     MOCLDY    20  11  68 S15       30.01S WCI   6
PIERRE         CLEAR     18  -2  41 SE10      30.21S WCI   6
WINNER         FAIR      21  -5  31 SE12      30.23S WCI   9
SIOUX FALLS    CLEAR     11   1  64 SE10      30.42S WCI  -3
OMAHA          PTCLDY    16   4  59 SE10      30.53R WCI   4
GRAND ISLAND   PTCLDY    17  -2  43 S10       30.39S WCI   5
KANSAS CITY    CLOUDY    16   0  49 SE3       30.55R
WICHITA        CLOUDY    16   9  74 SE7       30.47F WCI   6
HAYS           CLOUDY    18   1  49 S10       30.37S WCI   6
LIBERAL        CLOUDY    14   7  73 E13       30.27S WCI   0
GOODLAND       FLURRIES  13   8  81 S18G28    30.16R WCI  -4
$$



USA.gov is the U.S. government's official web portal to all federal, state and local government web resources and services.